Tracking 30918 objects as of 2-Jul-2025
HD Live streaming from Space Station
objects crossing your sky now

STARLINK-2475

Track STARLINK-2475 now!
10-day predictions
STARLINK-2475 is classified as:


NORAD ID: 48133
Int'l Code: 2021-027AT
Perigee: 553.7 km
Apogee: 555.0 km
Inclination: 53.1 °
Period: 95.6 minutes
Semi major axis: 6925 km
RCS: Unknown
Launch date: April 7, 2021
Source: United States (US)
Launch site: AIR FORCE EASTERN TEST RANGE (AFETR)
Your satellite tracking list
Your tracking list is empty




NASA's NSSDC Master Catalog

Two Line Element Set (TLE):
1 48133U 21027AT  25182.79522854  .00000452  00000-0  49206-4 0  9997
2 48133  53.0540 217.9303 0000948  84.0094 276.1003 15.06397614234605
Source of the keplerian elements: AFSPC